STARLINK-1669 (47624 NORAD) Tracking and Keplerian Element Data
This shows tracking and keplerian element data for the satellite.
Feedback or suggestion? Click here.
Element | Value |
Catalog | 47624 |
Name | STARLINK-1669 |
Epoch Orbit | 235 |
Epoch Day | 57.16667824 |
Epoch Year | 2021 |
RAAN | 52.034 |
Inclination | 53.0492 |
Eccentricity | 6.39E-05 |
Argument of Perigee | 85.4869 |
Mean Anonmoly | 169.1997 |
Mean Motion | 15.85872963 |
Decay Rate | 0.00058193 |
L1 | 1 47624U 21012E 21057.16667824 .00058193 00000-0 23418-3 0 9991 |
L2 | 2 47624 53.0492 52.0340 0000639 85.4869 169.1997 15.85872963 2356 |
Live tracking and technical data element details for STARLINK-1669 (NORAD 47624). STARLINK-1669 can be tracked NOW for your location showing map with azimuth and elevation plus other details from your city location.
Track the satellite on the map from your city or location and see movement details for azimuth, elevation, latitude, longitude, range, height, and movement on the map or in text.
IsCatalogInMostPopularTable: catalog: 47624, numindb: 1
Update: records affected: 1
GetName: 47624 STARLINK-1669
Hit Count: updated at: Fri, 26 Feb 2021 10:35:03 GMT